Location: Hodgeman County Ambulance
(38.0844°N, 99.8949°W)
Time: 06:36:30
(UTC+00:00)

Daily predictions for brighter satellites

Satellite Brightness Start Highest point End
(mag) Time Altitude Azimuth Time Altitude Azimuth Time Altitude Azimuth
Abrixas rocket 3.6 12:01:14 12° NNW 12:03:17 25° NNE 12:05:43 10° E
Aureole 3 3.8 12:00:23 10° N 12:04:46 83° W 12:10:22 10° S
ADEOS 4.2 12:00:15 10° N 12:04:55 34° WNW 12:09:35 10° SW
Cosmos 1484 Rocket 3.8 12:02:25 10° NNW 12:05:33 24° WNW 12:08:36 10° SW
BREEZE-M DEB (TANK) 2.3 12:05:27 20° W 12:06:39 30° SW 12:08:38 10° SSE
Cosmos 1428 Rocket 4.5 12:01:36 10° SSW 12:07:47 66° W 12:13:57 10° N
Cosmos 407 Rocket 3.9 12:03:17 10° S 12:08:21 68° ESE 12:13:28 10° NNE
OE (NEXTSAT) 4.4 12:06:52 10° SW 12:10:20 76° SSE 12:13:49 10° ENE
H-2A R/B 3.5 12:07:05 10° NNE 12:10:52 57° E 12:14:39 10° S
Cosmos 1626 Rocket 4.1 12:07:56 10° S 12:12:19 64° E 12:16:46 10° NNE
Cosmos 1140 Rocket 4.1 12:08:01 10° S 12:13:03 59° ESE 12:18:06 10° NNE
Cosmos 1553 Rocket 4.3 12:07:15 10° N 12:13:21 72° E 12:19:23 10° SSE
PSLV R/B 3.9 12:09:19 10° S 12:13:30 74° WSW 12:17:43 10° NNW
Cosmos 2278 3.7 12:11:01 10° NNW 12:16:36 64° WSW 12:22:10 10° S
Okean O Rocket 4.2 12:14:49 10° NE 12:18:28 26° E 12:22:07 10° SSE
Cosmos 2322 Rocket 4.1 12:14:03 10° N 12:18:59 29° ENE 12:23:50 10° ESE
Cosmos 2026 Rocket 4.2 12:13:38 10° SSW 12:19:46 50° W 12:25:58 10° N
SL-27 R/B 4.0 12:17:09 10° S 12:20:34 42° ESE 12:24:00 10° NNE
Cosmos 1689 Rocket 2.5 12:17:59 10° S 12:20:46 39° W 12:23:32 10° NNW
Cosmos 1833 Rocket 4.1 12:17:49 11° W 12:21:16 17° NW 12:24:56 10° NNW
Meteor PRIRODA 3.9 12:18:24 10° N 12:21:54 44° WNW 12:25:23 10° SSW
Gblst 52 Del rocket 4.3 12:17:28 10° SW 12:23:06 90° NE 12:29:24 10° NE
Meteor 2-10 Rocket 3.6 12:20:35 10° N 12:25:37 85° E 12:30:45 10° S
CZ-4B R/B 3.5 12:23:51 10° N 12:27:36 36° WNW 12:31:31 10° SW
Meteor 1-31 Rocket 4.2 12:27:14 10° NNW 12:29:57 18° WNW 12:32:40 10° WSW
Uosat 12 SS-18 rocket 4.4 12:27:54 10° SSW 12:32:51 79° ESE 12:37:14 10° NE
ATLAS 3B R/B 3.6 12:28:34 10° W 12:34:01 27° NW 12:39:33 10° NNE
Meteor 2-15 4.5 12:29:56 10° N 12:36:03 89° W 12:42:06 10° S
CZ-4B R/B 4.4 12:32:24 10° NNE 12:37:33 48° E 12:42:37 10° S
